This is the latest recevied weather packets stored in our database for station/object OE3BCB-14. If no packets are shown the sender has not sent any weather packets the latest 10 day(s).
| Time | Temp. | Humidity | Pressure | Rain* | Wind** | Luminosity | Snow |
|---|---|---|---|---|---|---|---|
| 1777796747 | 30° C | 38% | 1019.7 hPa | - | - | 294 W/m² | - |
| 1777796444 | 28.89° C | 38% | 1019.8 hPa | - | - | 377 W/m² | - |
| 1777796142 | 28.89° C | 39% | 1019.8 hPa | - | - | 279 W/m² | - |
| 1777795840 | 28.89° C | 40% | 1019.8 hPa | - | - | 207 W/m² | - |
| 1777795537 | 27.78° C | 40% | 1019.9 hPa | - | - | 325 W/m² | - |
| 1777795235 | 27.78° C | 42% | 1019.8 hPa | - | - | 118 W/m² | - |
| 1777794932 | 26.67° C | 44% | 1019.9 hPa | - | - | 277 W/m² | - |
| 1777794630 | 23.89° C | 43% | 1019.9 hPa | - | - | 167 W/m² | - |
| 1777794327 | 23.33° C | 43% | 1019.9 hPa | - | - | 150 W/m² | - |
| 1777794025 | 23.33° C | 43% | 1019.9 hPa | - | - | 45 W/m² | - |
| 1777793420 | 22.78° C | 45% | 1019.9 hPa | - | - | 25 W/m² | - |
| 1777792815 | 22.22° C | 45% | 1019.9 hPa | - | - | 24 W/m² | - |
| 1777792211 | 21.11° C | 46% | 1019.8 hPa | - | - | 24 W/m² | - |
| 1777791908 | 21.11° C | 47% | 1019.8 hPa | - | - | 23 W/m² | - |
| 1777791606 | 20.56° C | 47% | 1019.8 hPa | - | - | 23 W/m² | - |
| 1777791303 | 20° C | 48% | 1019.8 hPa | - | - | 23 W/m² | - |
| 1777791001 | 20° C | 48% | 1019.9 hPa | - | - | 23 W/m² | - |
| 1777790699 | 19.44° C | 48% | 1019.9 hPa | - | - | 23 W/m² | - |
| 1777790396 | 18.89° C | 48% | 1019.9 hPa | - | - | 23 W/m² | - |
| 1777790094 | 19.44° C | 48% | 1019.9 hPa | - | - | 138 W/m² | - |
| 1777789791 | 18.89° C | 49% | 1019.9 hPa | - | - | 143 W/m² | - |
| 1777789489 | 18.33° C | 50% | 1019.9 hPa | - | - | 144 W/m² | - |
| 1777789186 | 17.78° C | 50% | 1020 hPa | - | - | 143 W/m² | - |
| 1777788884 | 16.67° C | 50% | 1019.9 hPa | - | - | 141 W/m² | - |
| 1777788279 | 15.56° C | 50% | 1019.9 hPa | - | - | 132 W/m² | - |
* Rain since midnight (hover to see other rain measurements)
** Current wind speed in m/s (hover to see current wind gust speed)